Location: Curupao
(10.4996°N, 66.6442°W)
Time: 02:31:02
(UTC+00:00)

Cosmos 1464 Rocket - Pass Details

Date: 23 May 2024
Orbit: 951 x 1001 km, 82.9° (Epoch: 12 June)

Event Time Altitude Azimuth Distance (km) Brightness Sun altitude
Rises 01:00:38 0° 352° (N) 3,659 7.5 -31.2°
Reaches altitude 10° 01:03:09 10° 350° (N) 2,705 6.8 -31.8°
Enters shadow 01:08:46 66° 301° (WNW) 1,041 4.2 -32.9°
